sat.trackr.live / text

‹ back to catalog

NANOACE

NORAD 42844 · 2017-042V

PAYLOAD ACTIVE UNKNOWN

§ Identity

Operator
Country
US
Launch date
2017-07-14
Launch site
TYMSC
Launch vehicle
Mass (kg)
RCS (m²)

External: N2YO · Heavens-Above · Gunter

§ Orbital elements

Epoch: 2026-09-19T22:43:48.123264Z

Period
94.34 min
Inclination
97.3803°
Eccentricity
0.0004968
Mean motion
15.26411804 rev/d
Perigee alt
483.1 km
Apogee alt
490.0 km
Semi-major
6,864.7 km
B*
3.2515e-4
RAAN
75.8968°
Arg perigee
52.1105°
Mean anomaly
308.0583°
Rev number
50,252

§ Raw data

NANOACE1 42844U 17042V   26262.94708476  .00008397  00000+0  32515-3 0  99942 42844  97.3803  75.8968 0004968  52.1105 308.0583 15.26411804502521

JSON: /api/v1/satellites/42844 · /tle

For live sub-satellite position, see the globe view (requires WebGL).

§ Visibility from observer

Set your observer location to see the next 7 days of passes ≥ 10°. The values pass through the URL so the page stays shareable.

No JS? Fill the form by hand. The geolocation button needs JavaScript.